Time,TemperatureF,DewpointF,PressureIn,WindDirection,WindDirectionDegrees,WindSpeedMPH,WindSpeedGustMPH,Humidity,HourlyPrecipIn,Conditions,Clouds,dailyrainin,SolarRadiationWatts/m^2,SoftwareType,DateUTC
2013-11-28 00:01:00,28.2,9.5,30.07,NW,315,21.9,21.9,45,0.00,CLR,,0.10,0.0,WeatherDisplay:10.37,2013-11-28 05:01:00,
2013-11-28 00:02:00,28.2,9.5,30.07,NW,315,21.9,21.9,45,0.00,CLR,,0.10,0.0,WeatherDisplay:10.37,2013-11-28 05:02:00,
2013-11-28 00:07:00,28.4,9.2,30.08,WNW,284,15.4,16.5,44,0.00,RA,,0.00,0.0,WeatherDisplay:10.37,2013-11-28 05:07:00,
2013-11-28 00:12:00,28.4,8.7,30.08,WNW,286,24.2,27.0,43,0.00,RA,,0.00,0.0,WeatherDisplay:10.37,2013-11-28 05:12:00,
2013-11-28 00:17:00,28.2,9.0,30.08,WNW,291,16.8,18.4,44,0.00,SCT,,0.00,0.0,WeatherDisplay:10.37,2013-11-28 05:17:00,
2013-11-28 00:22:00,28.2,9.0,30.08,WNW,293,21.6,21.6,44,0.00,SCT,,0.00,0.0,WeatherDisplay:10.37,2013-11-28 05:22:00,
2013-11-28 00:27:00,28.2,8.5,30.09,WNW,300,19.7,24.2,43,0.00,SCT,,0.00,0.0,WeatherDisplay:10.37,2013-11-28 05:27:00,
2013-11-28 00:32:00,28.2,9.0,30.10,West,269,16.9,24.0,44,0.00,SCT,,0.00,0.0,WeatherDisplay:10.37,2013-11-28 05:32:00,
2013-11-28 00:37:00,28.2,8.5,30.10,WNW,286,16.0,23.0,43,0.00,SCT,,0.00,0.0,WeatherDisplay:10.37,2013-11-28 05:37:00,
2013-11-28 00:42:00,28.1,7.9,30.10,NW,311,23.4,30.0,42,0.00,SCT,,0.00,0.0,WeatherDisplay:10.37,2013-11-28 05:42:00,
2013-11-28 00:47:00,28.1,6.8,30.10,WNW,300,13.4,16.5,40,0.00,SCT,,0.00,0.0,WeatherDisplay:10.37,2013-11-28 05:47:00,
2013-11-28 00:52:00,27.9,8.3,30.11,NW,323,26.6,26.6,43,0.00,SCT,,0.00,0.0,WeatherDisplay:10.37,2013-11-28 05:52:00,
2013-11-28 00:57:00,28.1,7.9,30.11,NW,321,23.8,25.3,42,0.00,SCT,,0.00,0.0,WeatherDisplay:10.37,2013-11-28 05:57:00,
2013-11-28 01:02:00,28.1,8.4,30.11,WNW,297,21.6,25.3,43,0.00,SCT,,0.00,0.0,WeatherDisplay:10.37,2013-11-28 06:02:00,
2013-11-28 01:07:00,27.9,8.8,30.11,WNW,286,20.4,24.2,44,0.00,SCT,,0.00,0.0,WeatherDisplay:10.37,2013-11-28 06:07:00,
2013-11-28 01:12:00,27.9,8.8,30.11,WNW,282,19.9,19.9,44,0.00,SCT,,0.00,0.0,WeatherDisplay:10.37,2013-11-28 06:12:00,
2013-11-28 01:17:00,27.9,9.3,30.11,WNW,283,11.6,16.1,45,0.00,SCT,,0.00,0.0,WeatherDisplay:10.37,2013-11-28 06:17:00,
2013-11-28 01:22:00,27.8,9.2,30.11,WNW,295,17.1,27.0,45,0.00,SCT,,0.00,0.0,WeatherDisplay:10.37,2013-11-28 06:22:00,
2013-11-28 01:27:00,27.8,8.7,30.11,NW,306,26.0,29.9,44,0.00,SCT,,0.00,0.0,WeatherDisplay:10.37,2013-11-28 06:27:00,
2013-11-28 01:32:00,27.6,9.0,30.12,NNW,341,18.2,20.7,45,0.00,SCT,,0.00,0.0,WeatherDisplay:10.37,2013-11-28 06:32:00,
2013-11-28 01:37:00,27.5,8.9,30.13,WNW,296,16.8,19.5,45,0.00,SCT,,0.00,0.0,WeatherDisplay:10.37,2013-11-28 06:37:00,
2013-11-28 01:42:00,27.5,8.9,30.13,West,267,20.6,20.6,45,0.00,SCT,,0.00,0.0,WeatherDisplay:10.37,2013-11-28 06:42:00,
2013-11-28 01:47:00,27.5,9.9,30.14,NNW,330,21.0,23.0,47,0.00,SCT,,0.00,0.0,WeatherDisplay:10.37,2013-11-28 06:47:00,
2013-11-28 01:52:00,27.6,9.0,30.15,WNW,298,19.8,23.0,45,0.00,SCT,,0.00,0.0,WeatherDisplay:10.37,2013-11-28 06:52:00,
2013-11-28 01:57:00,27.6,9.5,30.15,NNW,327,15.4,16.5,46,0.00,SCT,,0.00,0.0,WeatherDisplay:10.37,2013-11-28 06:57:00,
2013-11-28 02:02:00,27.5,8.9,30.15,WNW,291,24.3,28.8,45,0.00,BKN,,0.00,0.0,WeatherDisplay:10.37,2013-11-28 07:02:00,
2013-11-28 02:07:00,27.5,8.9,30.16,NW,313,14.6,20.7,45,0.00,BKN,,0.00,0.0,WeatherDisplay:10.37,2013-11-28 07:07:00,
2013-11-28 02:12:00,27.3,8.7,30.16,WNW,299,12.6,15.0,45,0.00,BKN,,0.00,0.0,WeatherDisplay:10.37,2013-11-28 07:12:00,
2013-11-28 02:17:00,27.2,9.1,30.16,West,277,9.9,22.5,46,0.00,BKN,,0.00,0.0,WeatherDisplay:10.37,2013-11-28 07:17:00,
2013-11-28 02:22:00,27.2,9.6,30.16,NW,320,22.8,22.8,47,0.00,BKN,,0.00,0.0,WeatherDisplay:10.37,2013-11-28 07:22:00,
2013-11-28 02:27:00,27.0,9.4,30.17,WNW,298,18.0,18.4,47,0.00,BKN,,0.00,0.0,WeatherDisplay:10.37,2013-11-28 07:27:00,
2013-11-28 02:32:00,27.0,9.4,30.17,West,277,16.7,19.6,47,0.00,BKN,,0.00,0.0,WeatherDisplay:10.37,2013-11-28 07:32:00,
2013-11-28 02:37:00,26.9,9.8,30.17,NNW,331,24.7,25.5,48,0.00,BKN,,0.00,0.0,WeatherDisplay:10.37,2013-11-28 07:37:00,
2013-11-28 02:42:00,26.9,9.8,30.18,WNW,285,15.9,19.6,48,0.00,BKN,,0.00,0.0,WeatherDisplay:10.37,2013-11-28 07:42:00,
2013-11-28 02:47:00,26.9,9.8,30.18,NW,323,16.7,23.0,48,0.00,BKN,,0.00,0.0,WeatherDisplay:10.37,2013-11-28 07:47:00,
2013-11-28 02:52:00,26.7,9.6,30.18,West,269,14.9,19.6,48,0.00,BKN,,0.00,0.0,WeatherDisplay:10.37,2013-11-28 07:52:00,
2013-11-28 02:57:00,26.7,9.6,30.18,WNW,286,21.3,31.5,48,0.00,BKN,,0.00,0.0,WeatherDisplay:10.37,2013-11-28 07:57:00,
2013-11-28 03:02:00,27.0,8.9,30.18,WNW,285,20.5,24.2,46,0.00,SCT,,0.00,0.0,WeatherDisplay:10.37,2013-11-28 08:02:00,
2013-11-28 03:07:00,26.9,9.3,30.19,WNW,300,21.1,21.1,47,0.00,SCT,,0.00,0.0,WeatherDisplay:10.37,2013-11-28 08:07:00,
2013-11-28 03:12:00,26.9,8.8,30.19,NW,311,19.0,25.5,46,0.00,SCT,,0.00,0.0,WeatherDisplay:10.37,2013-11-28 08:12:00,
2013-11-28 03:17:00,27.0,8.9,30.20,NW,306,16.1,20.7,46,0.00,SCT,,0.00,0.0,WeatherDisplay:10.37,2013-11-28 08:17:00,
2013-11-28 03:22:00,27.0,8.5,30.20,NW,304,10.8,19.6,45,0.00,SCT,,0.00,0.0,WeatherDisplay:10.37,2013-11-28 08:22:00,
2013-11-28 03:27:00,27.0,8.5,30.20,West,277,5.2,8.1,45,0.00,SCT,,0.00,0.0,WeatherDisplay:10.37,2013-11-28 08:27:00,
2013-11-28 03:32:00,26.9,8.4,30.20,WNW,287,10.3,13.5,45,0.00,SCT,,0.00,0.0,WeatherDisplay:10.37,2013-11-28 08:32:00,
2013-11-28 03:37:00,26.9,7.9,30.20,NW,322,9.0,19.6,44,0.00,SCT,,0.00,0.0,WeatherDisplay:10.37,2013-11-28 08:37:00,
2013-11-28 03:42:00,26.9,7.4,30.20,WNW,296,11.3,20.7,43,0.00,SCT,,0.00,0.0,WeatherDisplay:10.37,2013-11-28 08:42:00,
2013-11-28 03:47:00,26.9,7.4,30.20,West,280,22.1,27.0,43,0.00,SCT,,0.00,0.0,WeatherDisplay:10.37,2013-11-28 08:47:00,
2013-11-28 03:52:00,26.9,6.8,30.21,WNW,294,6.2,9.2,42,0.00,SCT,,0.00,0.0,WeatherDisplay:10.37,2013-11-28 08:52:00,
2013-11-28 03:57:00,26.6,7.1,30.21,NW,319,14.9,18.0,43,0.00,SCT,,0.00,0.0,WeatherDisplay:10.37,2013-11-28 08:57:00,
2013-11-28 04:02:00,26.6,7.1,30.21,WNW,293,18.0,20.7,43,0.00,CLR,,0.00,0.0,WeatherDisplay:10.37,2013-11-28 09:02:00,
2013-11-28 04:07:00,26.6,6.6,30.22,WNW,296,8.3,15.0,42,0.00,CLR,,0.00,0.0,WeatherDisplay:10.37,2013-11-28 09:07:00,
2013-11-28 04:12:00,26.6,6.6,30.22,West,271,6.0,6.0,42,0.00,CLR,,0.00,0.0,WeatherDisplay:10.37,2013-11-28 09:12:00,
2013-11-28 04:17:00,26.4,6.9,30.22,NW,309,2.1,5.8,43,0.00,CLR,,0.00,0.0,WeatherDisplay:10.37,2013-11-28 09:17:00,
2013-11-28 04:22:00,26.4,6.9,30.23,NW,315,4.4,6.0,43,0.00,CLR,,0.00,0.0,WeatherDisplay:10.37,2013-11-28 09:22:00,
2013-11-28 04:27:00,26.4,6.9,30.23,WNW,296,3.9,8.1,43,0.00,CLR,,0.00,0.0,WeatherDisplay:10.37,2013-11-28 09:27:00,
2013-11-28 04:32:00,26.4,6.9,30.23,WNW,296,0.0,1.5,43,0.00,CLR,,0.00,0.0,WeatherDisplay:10.37,2013-11-28 09:32:00,
2013-11-28 04:37:00,26.1,7.1,30.23,WNW,298,4.1,7.5,44,0.00,CLR,,0.00,0.0,WeatherDisplay:10.37,2013-11-28 09:37:00,
2013-11-28 04:43:00,26.1,7.1,30.23,WNW,283,2.3,9.2,44,0.00,CLR,,0.00,0.0,WeatherDisplay:10.37,2013-11-28 09:43:00,
2013-11-28 04:48:00,26.0,7.5,30.24,WNW,283,2.8,6.0,45,0.00,CLR,,0.00,0.0,WeatherDisplay:10.37,2013-11-28 09:48:00,
2013-11-28 04:53:00,25.8,7.4,30.23,West,280,6.2,8.1,45,0.00,CLR,,0.00,0.0,WeatherDisplay:10.37,2013-11-28 09:53:00,
2013-11-28 04:58:00,25.8,7.4,30.24,WNW,300,5.3,7.5,45,0.00,CLR,,0.00,0.0,WeatherDisplay:10.37,2013-11-28 09:58:00,
2013-11-28 05:03:00,26.0,7.5,30.24,NW,306,9.0,10.5,45,0.00,CLR,,0.00,0.0,WeatherDisplay:10.37,2013-11-28 10:03:00,
2013-11-28 05:08:00,26.0,7.5,30.25,NW,312,3.5,8.1,45,0.00,CLR,,0.00,0.0,WeatherDisplay:10.37,2013-11-28 10:08:00,
2013-11-28 05:13:00,25.8,7.8,30.25,West,277,3.3,7.5,46,0.00,FEW,,0.00,0.0,WeatherDisplay:10.37,2013-11-28 10:13:00,
2013-11-28 05:18:00,25.8,8.3,30.26,NW,314,5.2,6.0,47,0.00,FEW,,0.00,0.0,WeatherDisplay:10.37,2013-11-28 10:18:00,
2013-11-28 05:23:00,25.8,8.3,30.26,WNW,300,7.3,9.2,47,0.00,FEW,,0.00,0.0,WeatherDisplay:10.37,2013-11-28 10:23:00,
2013-11-28 05:28:00,26.0,8.5,30.26,NW,304,9.4,10.4,47,0.00,FEW,,0.00,0.0,WeatherDisplay:10.37,2013-11-28 10:28:00,
2013-11-28 05:33:00,26.0,9.0,30.26,WNW,302,8.4,9.2,48,0.00,FEW,,0.00,0.0,WeatherDisplay:10.37,2013-11-28 10:33:00,
2013-11-28 05:38:00,26.0,8.5,30.26,West,279,13.2,16.5,47,0.00,FEW,,0.00,0.0,WeatherDisplay:10.37,2013-11-28 10:38:00,
2013-11-28 05:43:00,26.3,8.8,30.26,NW,309,15.2,22.5,47,0.00,FEW,,0.00,0.0,WeatherDisplay:10.37,2013-11-28 10:43:00,
2013-11-28 05:48:00,26.4,8.4,30.26,WNW,296,10.2,11.5,46,0.00,FEW,,0.00,0.0,WeatherDisplay:10.37,2013-11-28 10:48:00,
2013-11-28 05:53:00,26.1,8.6,30.26,NW,313,8.5,13.8,47,0.00,FEW,,0.00,0.0,WeatherDisplay:10.37,2013-11-28 10:53:00,
2013-11-28 05:58:00,26.0,8.5,30.27,NW,304,12.5,15.0,47,0.00,FEW,,0.00,0.0,WeatherDisplay:10.37,2013-11-28 10:58:00,
2013-11-28 06:03:00,26.0,9.0,30.27,WNW,292,7.4,13.8,48,0.00,CLR,,0.00,0.0,WeatherDisplay:10.37,2013-11-28 11:03:00,
2013-11-28 06:08:00,25.7,8.7,30.28,WNW,296,8.3,13.8,48,0.00,CLR,,0.00,0.0,WeatherDisplay:10.37,2013-11-28 11:08:00,
2013-11-28 06:13:00,25.6,8.6,30.28,WNW,288,5.8,9.2,48,0.00,CLR,,0.00,0.0,WeatherDisplay:10.37,2013-11-28 11:13:00,
2013-11-28 06:18:00,25.7,8.7,30.29,WNW,289,13.1,16.5,48,0.00,CLR,,0.00,0.0,WeatherDisplay:10.37,2013-11-28 11:18:00,
2013-11-28 06:23:00,25.7,8.7,30.29,West,275,8.3,13.8,48,0.00,CLR,,0.00,0.0,WeatherDisplay:10.37,2013-11-28 11:23:00,
2013-11-28 06:28:00,25.7,8.7,30.29,WNW,300,7.2,10.5,48,0.00,CLR,,0.00,0.0,WeatherDisplay:10.37,2013-11-28 11:28:00,
2013-11-28 06:33:00,25.7,8.7,30.30,West,279,12.6,13.8,48,0.00,CLR,,0.00,0.0,WeatherDisplay:10.37,2013-11-28 11:33:00,
2013-11-28 06:38:00,25.7,8.7,30.30,NW,309,5.3,9.2,48,0.00,CLR,,0.00,0.0,WeatherDisplay:10.37,2013-11-28 11:38:00,
2013-11-28 06:43:00,25.4,8.4,30.31,WNW,287,5.3,10.4,48,0.00,CLR,,0.00,0.0,WeatherDisplay:10.37,2013-11-28 11:43:00,
2013-11-28 06:48:00,25.4,8.4,30.31,WNW,290,6.4,7.5,48,0.00,CLR,,0.00,0.0,WeatherDisplay:10.37,2013-11-28 11:48:00,
2013-11-28 06:53:00,25.3,8.8,30.31,WNW,303,7.3,10.4,49,0.00,CLR,,0.00,0.0,WeatherDisplay:10.37,2013-11-28 11:53:00,
2013-11-28 06:58:00,25.0,8.5,30.31,WNW,298,5.4,5.8,49,0.00,CLR,,0.00,0.0,WeatherDisplay:10.37,2013-11-28 11:58:00,
2013-11-28 07:03:00,24.8,8.8,30.32,NW,325,4.5,9.0,50,0.00,CLR,,0.00,0.0,WeatherDisplay:10.37,2013-11-28 12:03:00,
2013-11-28 07:08:00,25.0,8.5,30.32,WNW,289,9.5,10.4,49,0.00,CLR,,0.00,0.0,WeatherDisplay:10.37,2013-11-28 12:08:00,
2013-11-28 07:13:00,25.1,8.6,30.32,West,276,8.9,10.5,49,0.00,CLR,,0.00,5.0,WeatherDisplay:10.37,2013-11-28 12:13:00,
2013-11-28 07:18:00,25.4,8.4,30.33,WNW,282,7.9,10.5,48,0.00,CLR,,0.00,7.0,WeatherDisplay:10.37,2013-11-28 12:18:00,
2013-11-28 07:23:00,25.3,8.3,30.33,WNW,292,5.4,8.1,48,0.00,CLR,,0.00,11.0,WeatherDisplay:10.37,2013-11-28 12:23:00,
2013-11-28 07:28:00,25.1,8.6,30.34,WNW,282,7.3,10.5,49,0.00,CLR,,0.00,12.0,WeatherDisplay:10.37,2013-11-28 12:28:00,
2013-11-28 07:33:00,25.1,8.6,30.34,WNW,290,2.3,9.2,49,0.00,CLR,,0.00,14.0,WeatherDisplay:10.37,2013-11-28 12:33:00,
2013-11-28 07:38:00,25.1,8.6,30.34,WNW,284,8.9,10.5,49,0.00,CLR,,0.00,16.0,WeatherDisplay:10.37,2013-11-28 12:38:00,
2013-11-28 07:43:00,25.3,8.8,30.35,WNW,289,3.6,6.0,49,0.00,CLR,,0.00,18.0,WeatherDisplay:10.37,2013-11-28 12:43:00,
2013-11-28 07:48:00,25.4,8.9,30.35,WNW,282,3.9,9.2,49,0.00,CLR,,0.00,19.0,WeatherDisplay:10.37,2013-11-28 12:48:00,
2013-11-28 07:53:00,25.6,9.1,30.35,West,268,6.4,10.4,49,0.00,CLR,,0.00,21.0,WeatherDisplay:10.37,2013-11-28 12:53:00,
2013-11-28 07:58:00,25.7,9.2,30.36,WNW,296,4.3,5.8,49,0.00,CLR,,0.00,21.0,WeatherDisplay:10.37,2013-11-28 12:58:00,
2013-11-28 08:03:00,25.8,9.2,30.36,NW,313,8.2,8.2,49,0.00,CLR,,0.00,23.0,WeatherDisplay:10.37,2013-11-28 13:03:00,
2013-11-28 08:08:00,26.1,9.1,30.37,WNW,294,6.0,8.1,48,0.00,CLR,,0.00,25.0,WeatherDisplay:10.37,2013-11-28 13:08:00,
2013-11-28 08:13:00,26.4,9.3,30.37,WNW,289,9.8,13.8,48,0.00,CLR,,0.00,25.0,WeatherDisplay:10.37,2013-11-28 13:13:00,
2013-11-28 08:18:00,26.6,9.5,30.37,WNW,288,7.6,9.2,48,0.00,CLR,,0.00,40.0,WeatherDisplay:10.37,2013-11-28 13:18:00,
2013-11-28 08:23:00,26.9,9.3,30.37,WNW,286,12.1,16.1,47,0.00,CLR,,0.00,56.0,WeatherDisplay:10.37,2013-11-28 13:23:00,
2013-11-28 08:28:00,27.2,9.1,30.37,WNW,302,6.6,10.5,46,0.00,CLR,,0.00,51.0,WeatherDisplay:10.37,2013-11-28 13:28:00,
2013-11-28 08:33:00,27.5,8.9,30.37,WNW,284,15.5,15.5,45,0.00,CLR,,0.00,93.0,WeatherDisplay:10.37,2013-11-28 13:33:00,
2013-11-28 08:38:00,27.6,9.0,30.38,WNW,294,4.0,8.1,45,0.00,CLR,,0.00,81.0,WeatherDisplay:10.37,2013-11-28 13:38:00,
2013-11-28 08:43:00,27.9,9.3,30.38,WNW,300,13.9,16.1,45,0.00,CLR,,0.00,118.0,WeatherDisplay:10.37,2013-11-28 13:43:00,
2013-11-28 08:48:00,28.1,9.0,30.38,WNW,285,6.8,13.8,44,0.00,CLR,,0.00,134.0,WeatherDisplay:10.37,2013-11-28 13:48:00,
2013-11-28 08:53:00,28.2,8.5,30.39,NNW,331,13.9,16.5,43,0.00,CLR,,0.00,181.0,WeatherDisplay:10.37,2013-11-28 13:53:00,
2013-11-28 08:58:00,28.2,8.0,30.39,NNW,333,14.8,19.6,42,0.00,CLR,,0.00,234.0,WeatherDisplay:10.37,2013-11-28 13:58:00,
2013-11-28 09:03:00,28.5,8.8,30.39,West,280,12.6,16.1,43,0.00,FEW,,0.00,250.0,WeatherDisplay:10.37,2013-11-28 14:03:00,
2013-11-28 09:08:00,28.7,8.5,30.39,WNW,293,8.9,13.8,42,0.00,FEW,,0.00,264.0,WeatherDisplay:10.37,2013-11-28 14:08:00,
2013-11-28 09:13:00,29.0,9.3,30.39,WNW,291,5.5,15.0,43,0.00,FEW,,0.00,274.0,WeatherDisplay:10.37,2013-11-28 14:13:00,
2013-11-28 09:18:00,29.1,8.8,30.39,NW,307,9.6,10.4,42,0.00,FEW,,0.00,287.0,WeatherDisplay:10.37,2013-11-28 14:18:00,
2013-11-28 09:23:00,29.1,8.3,30.39,WNW,288,17.5,18.0,41,0.00,FEW,,0.00,299.0,WeatherDisplay:10.37,2013-11-28 14:23:00,
2013-11-28 09:28:00,29.1,8.8,30.40,NW,309,12.3,16.1,42,0.00,FEW,,0.00,308.0,WeatherDisplay:10.37,2013-11-28 14:28:00,
2013-11-28 09:33:00,29.5,10.2,30.40,NNW,327,11.1,15.0,44,0.00,FEW,,0.00,316.0,WeatherDisplay:10.37,2013-11-28 14:33:00,
2013-11-28 09:38:00,29.7,8.8,30.40,WNW,300,19.2,19.2,41,0.00,FEW,,0.00,327.0,WeatherDisplay:10.37,2013-11-28 14:38:00,
2013-11-28 09:43:00,29.7,9.4,30.40,NW,318,12.3,16.1,42,0.00,FEW,,0.00,338.0,WeatherDisplay:10.37,2013-11-28 14:43:00,
2013-11-28 09:48:00,30.0,9.6,30.40,NW,313,7.9,9.2,42,0.00,FEW,,0.00,346.0,WeatherDisplay:10.37,2013-11-28 14:48:00,
2013-11-28 09:53:00,30.4,10.0,30.40,WNW,298,9.6,11.5,42,0.00,FEW,,0.00,353.0,WeatherDisplay:10.37,2013-11-28 14:53:00,
2013-11-28 09:58:00,30.6,9.7,30.41,West,281,20.0,21.0,41,0.00,FEW,,0.00,362.0,WeatherDisplay:10.37,2013-11-28 14:58:00,
2013-11-28 10:03:00,30.6,9.7,30.41,West,277,11.7,13.8,41,0.00,FEW,,0.00,373.0,WeatherDisplay:10.37,2013-11-28 15:03:00,
2013-11-28 10:08:00,30.6,9.7,30.41,NW,317,11.0,16.1,41,0.00,FEW,,0.00,381.0,WeatherDisplay:10.37,2013-11-28 15:08:00,
2013-11-28 10:13:00,30.6,9.7,30.41,West,281,14.5,18.4,41,0.00,CLR,,0.00,390.0,WeatherDisplay:10.37,2013-11-28 15:13:00,
2013-11-28 10:18:00,30.7,10.3,30.41,WNW,286,14.2,18.4,42,0.00,CLR,,0.00,394.0,WeatherDisplay:10.37,2013-11-28 15:18:00,
2013-11-28 10:23:00,31.2,10.2,30.41,NW,319,19.4,19.6,41,0.00,CLR,,0.00,401.0,WeatherDisplay:10.37,2013-11-28 15:23:00,
2013-11-28 10:28:00,31.5,10.5,30.41,West,267,13.1,16.1,41,0.00,CLR,,0.00,410.0,WeatherDisplay:10.37,2013-11-28 15:28:00,
2013-11-28 10:33:00,31.9,11.9,30.41,West,270,12.3,18.0,43,0.00,CLR,,0.00,415.0,WeatherDisplay:10.37,2013-11-28 15:33:00,
2013-11-28 10:38:00,32.2,10.5,30.41,West,267,13.9,15.0,40,0.00,CLR,,0.00,420.0,WeatherDisplay:10.37,2013-11-28 15:38:00,
2013-11-28 10:43:00,31.8,9.6,30.41,NW,326,23.1,23.1,39,0.00,CLR,,0.00,424.0,WeatherDisplay:10.37,2013-11-28 15:43:00,
2013-11-28 10:48:00,31.8,10.2,30.40,NW,312,19.0,19.6,40,0.00,CLR,,0.00,429.0,WeatherDisplay:10.37,2013-11-28 15:48:00,
2013-11-28 10:53:00,31.9,9.7,30.41,NW,319,12.3,15.0,39,0.00,CLR,,0.00,436.0,WeatherDisplay:10.37,2013-11-28 15:53:00,
2013-11-28 10:58:00,32.2,10.5,30.41,NW,325,13.6,15.0,40,0.00,CLR,,0.00,434.0,WeatherDisplay:10.37,2013-11-28 15:58:00,
2013-11-28 11:03:00,32.2,10.0,30.41,NNW,336,13.6,15.0,39,0.00,CLR,,0.00,439.0,WeatherDisplay:10.37,2013-11-28 16:03:00,
2013-11-28 11:08:00,32.7,10.4,30.41,WNW,299,11.9,15.0,39,0.00,CLR,,0.00,445.0,WeatherDisplay:10.37,2013-11-28 16:08:00,
2013-11-28 11:13:00,32.8,9.3,30.41,WNW,284,18.7,18.7,37,0.00,CLR,,0.00,446.0,WeatherDisplay:10.37,2013-11-28 16:13:00,
2013-11-28 11:18:00,32.7,10.4,30.41,NW,313,15.4,18.4,39,0.00,CLR,,0.00,454.0,WeatherDisplay:10.37,2013-11-28 16:18:00,
2013-11-28 11:23:00,32.8,9.3,30.41,WNW,298,6.5,16.1,37,0.00,CLR,,0.00,454.0,WeatherDisplay:10.37,2013-11-28 16:23:00,
2013-11-28 11:28:00,33.1,10.8,30.40,NW,323,14.0,16.1,39,0.00,CLR,,0.00,455.0,WeatherDisplay:10.37,2013-11-28 16:28:00,
2013-11-28 11:33:00,33.2,10.9,30.40,West,277,10.2,13.8,39,0.00,CLR,,0.00,459.0,WeatherDisplay:10.37,2013-11-28 16:33:00,
2013-11-28 11:38:00,33.5,11.2,30.40,WNW,284,9.2,11.5,39,0.00,CLR,,0.00,462.0,WeatherDisplay:10.37,2013-11-28 16:38:00,
2013-11-28 11:43:00,34.1,11.7,30.40,West,265,14.5,16.1,39,0.00,CLR,,0.00,462.0,WeatherDisplay:10.37,2013-11-28 16:43:00,
2013-11-28 11:48:00,34.1,11.1,30.40,NNW,342,10.8,13.8,38,0.00,CLR,,0.00,461.0,WeatherDisplay:10.37,2013-11-28 16:48:00,
2013-11-28 11:53:00,33.8,10.8,30.40,WNW,288,10.7,12.0,38,0.00,CLR,,0.00,466.0,WeatherDisplay:10.37,2013-11-28 16:53:00,
2013-11-28 11:58:00,33.8,10.8,30.39,West,261,11.0,15.0,38,0.00,CLR,,0.00,462.0,WeatherDisplay:10.37,2013-11-28 16:58:00,
2013-11-28 12:03:00,34.1,10.5,30.39,NW,321,12.5,16.1,37,0.00,CLR,,0.00,462.0,WeatherDisplay:10.37,2013-11-28 17:03:00,
2013-11-28 12:08:00,34.0,11.6,30.39,WNW,298,16.0,16.5,39,0.00,CLR,,0.00,461.0,WeatherDisplay:10.37,2013-11-28 17:08:00,
2013-11-28 12:13:00,34.1,11.7,30.39,NW,322,11.3,16.5,39,0.00,FEW,,0.00,462.0,WeatherDisplay:10.37,2013-11-28 17:13:00,
2013-11-28 12:18:00,34.6,12.1,30.39,NW,322,11.8,18.4,39,0.00,FEW,,0.00,459.0,WeatherDisplay:10.37,2013-11-28 17:18:00,
2013-11-28 12:23:00,34.7,11.6,30.38,NNW,329,9.3,13.8,38,0.00,FEW,,0.00,454.0,WeatherDisplay:10.37,2013-11-28 17:23:00,
2013-11-28 12:28:00,35.2,12.1,30.39,NW,323,4.7,10.5,38,0.00,FEW,,0.00,448.0,WeatherDisplay:10.37,2013-11-28 17:28:00,
2013-11-28 12:33:00,35.2,10.9,30.39,WNW,301,10.3,10.5,36,0.00,FEW,,0.00,455.0,WeatherDisplay:10.37,2013-11-28 17:33:00,
2013-11-28 12:38:00,35.2,12.1,30.39,NW,306,8.2,10.4,38,0.00,FEW,,0.00,446.0,WeatherDisplay:10.37,2013-11-28 17:38:00,
2013-11-28 12:43:00,35.2,10.9,30.39,NNW,328,11.3,15.0,36,0.00,FEW,,0.00,448.0,WeatherDisplay:10.37,2013-11-28 17:43:00,
2013-11-28 12:48:00,35.3,11.6,30.38,NW,309,14.0,15.0,37,0.00,FEW,,0.00,438.0,WeatherDisplay:10.37,2013-11-28 17:48:00,
2013-11-28 12:53:00,35.2,10.9,30.38,NW,308,13.3,16.5,36,0.00,FEW,,0.00,438.0,WeatherDisplay:10.37,2013-11-28 17:53:00,
2013-11-28 12:58:00,35.0,11.3,30.38,NNW,344,13.1,15.0,37,0.00,FEW,,0.00,434.0,WeatherDisplay:10.37,2013-11-28 17:58:00,
2013-11-28 13:03:00,35.3,11.0,30.38,NW,309,11.6,15.0,36,0.00,FEW,,0.00,427.0,WeatherDisplay:10.37,2013-11-28 18:03:00,
2013-11-28 13:08:00,35.5,11.8,30.38,WNW,298,7.3,8.1,37,0.00,FEW,,0.00,422.0,WeatherDisplay:10.37,2013-11-28 18:08:00,
2013-11-28 13:13:00,35.6,11.2,30.38,West,264,14.2,16.5,36,0.00,SCT,,0.00,418.0,WeatherDisplay:10.37,2013-11-28 18:13:00,
2013-11-28 13:18:00,35.2,10.2,30.38,WNW,288,9.3,13.8,35,0.00,SCT,,0.00,411.0,WeatherDisplay:10.37,2013-11-28 18:18:00,
2013-11-28 13:23:00,35.5,11.1,30.37,NW,304,8.4,10.4,36,0.00,SCT,,0.00,404.0,WeatherDisplay:10.37,2013-11-28 18:23:00,
2013-11-28 13:28:00,35.8,10.8,30.37,WSW,250,11.7,19.6,35,0.00,SCT,,0.00,401.0,WeatherDisplay:10.37,2013-11-28 18:28:00,
2013-11-28 13:33:00,35.9,11.5,30.37,West,270,4.0,9.2,36,0.00,SCT,,0.00,399.0,WeatherDisplay:10.37,2013-11-28 18:33:00,
2013-11-28 13:38:00,36.0,10.3,30.37,NW,313,4.4,8.1,34,0.00,SCT,,0.00,387.0,WeatherDisplay:10.37,2013-11-28 18:38:00,
2013-11-28 13:43:00,36.3,12.5,30.37,NW,311,4.7,6.0,37,0.00,SCT,,0.00,383.0,WeatherDisplay:10.37,2013-11-28 18:43:00,
2013-11-28 13:48:00,36.2,10.5,30.37,West,280,10.6,13.5,34,0.00,SCT,,0.00,376.0,WeatherDisplay:10.37,2013-11-28 18:48:00,
2013-11-28 13:53:00,35.9,10.9,30.37,NNW,329,9.5,9.5,35,0.00,SCT,,0.00,373.0,WeatherDisplay:10.37,2013-11-28 18:53:00,
2013-11-28 13:58:00,36.0,11.6,30.37,WNW,292,3.0,4.6,36,0.00,SCT,,0.00,355.0,WeatherDisplay:10.37,2013-11-28 18:58:00,
2013-11-28 14:03:00,36.5,11.4,30.37,West,273,12.1,15.0,35,0.00,SCT,,0.00,339.0,WeatherDisplay:10.37,2013-11-28 19:03:00,
2013-11-28 14:08:00,36.0,11.0,30.37,NW,305,6.5,9.0,35,0.00,SCT,,0.00,329.0,WeatherDisplay:10.37,2013-11-28 19:08:00,
2013-11-28 14:13:00,35.9,12.7,30.37,NW,321,13.4,13.8,38,0.00,SCT,,0.00,318.0,WeatherDisplay:10.37,2013-11-28 19:13:00,
2013-11-28 14:18:00,35.6,10.6,30.37,NW,305,3.1,9.2,35,0.00,SCT,,0.00,308.0,WeatherDisplay:10.37,2013-11-28 19:18:00,
2013-11-28 14:23:00,35.9,11.5,30.37,NW,306,8.4,9.2,36,0.00,SCT,,0.00,297.0,WeatherDisplay:10.37,2013-11-28 19:23:00,
2013-11-28 14:28:00,36.0,10.3,30.37,WNW,295,5.3,8.1,34,0.00,SCT,,0.00,288.0,WeatherDisplay:10.37,2013-11-28 19:28:00,
2013-11-28 14:33:00,35.9,10.9,30.37,NW,304,8.2,10.4,35,0.00,SCT,,0.00,276.0,WeatherDisplay:10.37,2013-11-28 19:33:00,
2013-11-28 14:38:00,35.9,10.9,30.38,NW,322,8.5,13.8,35,0.00,SCT,,0.00,265.0,WeatherDisplay:10.37,2013-11-28 19:38:00,
2013-11-28 14:43:00,35.9,10.2,30.38,WNW,286,3.6,13.8,34,0.00,SCT,,0.00,253.0,WeatherDisplay:10.37,2013-11-28 19:43:00,
2013-11-28 14:48:00,36.0,9.6,30.38,West,274,5.7,9.2,33,0.00,SCT,,0.00,237.0,WeatherDisplay:10.37,2013-11-28 19:48:00,
2013-11-28 14:53:00,36.0,10.3,30.38,WSW,257,6.4,8.1,34,0.00,SCT,,0.00,227.0,WeatherDisplay:10.37,2013-11-28 19:53:00,
2013-11-28 14:58:00,36.0,10.3,30.38,WNW,294,5.7,10.4,34,0.00,SCT,,0.00,213.0,WeatherDisplay:10.37,2013-11-28 19:58:00,
2013-11-28 15:03:00,36.2,11.1,30.38,WNW,286,7.1,9.2,35,0.00,SCT,,0.00,200.0,WeatherDisplay:10.37,2013-11-28 20:03:00,
2013-11-28 15:08:00,36.0,10.3,30.38,WNW,298,7.8,10.4,34,0.00,SCT,,0.00,188.0,WeatherDisplay:10.37,2013-11-28 20:08:00,
2013-11-28 15:13:00,35.9,10.2,30.38,WNW,290,7.1,10.4,34,0.00,FEW,,0.00,172.0,WeatherDisplay:10.37,2013-11-28 20:13:00,
2013-11-28 15:18:00,35.9,11.5,30.38,West,263,3.5,5.8,36,0.00,FEW,,0.00,149.0,WeatherDisplay:10.37,2013-11-28 20:18:00,
2013-11-28 15:23:00,35.9,10.2,30.38,NW,312,7.8,11.5,34,0.00,FEW,,0.00,139.0,WeatherDisplay:10.37,2013-11-28 20:23:00,
2013-11-28 15:28:00,35.6,10.6,30.38,West,277,6.3,8.1,35,0.00,FEW,,0.00,128.0,WeatherDisplay:10.37,2013-11-28 20:28:00,
2013-11-28 15:33:00,35.6,11.2,30.39,WNW,296,4.4,4.6,36,0.00,FEW,,0.00,116.0,WeatherDisplay:10.37,2013-11-28 20:33:00,
2013-11-28 15:38:00,35.9,10.9,30.39,WNW,296,0.0,3.5,35,0.00,FEW,,0.00,100.0,WeatherDisplay:10.37,2013-11-28 20:38:00,
2013-11-28 15:43:00,35.9,10.9,30.39,WNW,296,3.1,4.6,35,0.00,FEW,,0.00,47.0,WeatherDisplay:10.37,2013-11-28 20:43:00,
2013-11-28 15:48:00,35.5,10.5,30.39,SW,235,0.1,1.2,35,0.00,FEW,,0.00,44.0,WeatherDisplay:10.37,2013-11-28 20:48:00,
2013-11-28 15:53:00,35.3,11.6,30.39,SW,236,0.4,1.5,37,0.00,FEW,,0.00,42.0,WeatherDisplay:10.37,2013-11-28 20:53:00,
2013-11-28 15:58:00,34.6,11.6,30.39,SW,236,0.2,1.2,38,0.00,FEW,,0.00,40.0,WeatherDisplay:10.37,2013-11-28 20:58:00,
2013-11-28 16:03:00,34.1,11.1,30.40,SW,236,0.6,3.5,38,0.00,FEW,,0.00,33.0,WeatherDisplay:10.37,2013-11-28 21:03:00,
2013-11-28 16:08:00,33.8,11.4,30.40,West,276,0.5,9.2,39,0.00,FEW,,0.00,32.0,WeatherDisplay:10.37,2013-11-28 21:08:00,
2013-11-28 16:13:00,33.5,11.2,30.40,West,261,0.0,0.0,39,0.00,FEW,,0.00,25.0,WeatherDisplay:10.37,2013-11-28 21:13:00,
2013-11-28 16:18:00,33.4,11.6,30.40,West,261,0.0,0.0,40,0.00,FEW,,0.00,25.0,WeatherDisplay:10.37,2013-11-28 21:18:00,
2013-11-28 16:23:00,33.2,11.5,30.40,West,261,0.0,0.0,40,0.00,FEW,,0.00,21.0,WeatherDisplay:10.37,2013-11-28 21:23:00,
2013-11-28 16:28:00,33.2,12.0,30.40,West,261,0.0,0.0,41,0.00,FEW,,0.00,16.0,WeatherDisplay:10.37,2013-11-28 21:28:00,
2013-11-28 16:33:00,33.1,11.9,30.41,West,261,0.0,0.0,41,0.00,FEW,,0.00,11.0,WeatherDisplay:10.37,2013-11-28 21:33:00,
2013-11-28 16:38:00,32.9,12.3,30.41,West,261,0.0,0.0,42,0.00,FEW,,0.00,9.0,WeatherDisplay:10.37,2013-11-28 21:38:00,
2013-11-28 16:43:00,32.7,12.1,30.41,West,263,2.2,3.5,42,0.00,FEW,,0.00,7.0,WeatherDisplay:10.37,2013-11-28 21:43:00,
2013-11-28 16:48:00,32.7,12.1,30.42,West,263,0.6,3.5,42,0.00,FEW,,0.00,0.0,WeatherDisplay:10.37,2013-11-28 21:48:00,
2013-11-28 16:53:00,32.5,11.9,30.42,West,263,2.5,4.6,42,0.00,FEW,,0.00,0.0,WeatherDisplay:10.37,2013-11-28 21:53:00,
2013-11-28 16:58:00,32.5,12.5,30.42,West,263,0.1,1.5,43,0.00,FEW,,0.00,0.0,WeatherDisplay:10.37,2013-11-28 21:58:00,
2013-11-28 17:03:00,32.4,12.4,30.42,West,263,0.0,0.0,43,0.00,FEW,,0.00,0.0,WeatherDisplay:10.37,2013-11-28 22:03:00,
2013-11-28 17:08:00,32.4,12.4,30.42,West,263,0.0,0.0,43,0.00,FEW,,0.00,0.0,WeatherDisplay:10.37,2013-11-28 22:08:00,
2013-11-28 17:13:00,32.2,12.7,30.42,West,263,0.0,0.0,44,0.00,FEW,,0.00,0.0,WeatherDisplay:10.37,2013-11-28 22:13:00,
2013-11-28 17:18:00,31.9,12.9,30.42,West,263,0.4,3.0,45,0.00,FEW,,0.00,0.0,WeatherDisplay:10.37,2013-11-28 22:18:00,
2013-11-28 17:23:00,31.5,13.1,30.42,West,263,1.0,3.0,46,0.00,FEW,,0.00,0.0,WeatherDisplay:10.37,2013-11-28 22:23:00,
2013-11-28 17:28:00,31.3,13.4,30.42,West,263,1.2,3.5,47,0.00,FEW,,0.00,0.0,WeatherDisplay:10.37,2013-11-28 22:28:00,
2013-11-28 17:33:00,31.2,13.3,30.42,West,269,1.9,4.6,47,0.00,FEW,,0.00,0.0,WeatherDisplay:10.37,2013-11-28 22:33:00,
2013-11-28 17:38:00,31.0,13.6,30.42,NW,323,3.3,5.8,48,0.00,FEW,,0.00,0.0,WeatherDisplay:10.37,2013-11-28 22:38:00,
2013-11-28 17:43:00,30.7,13.3,30.42,NW,323,0.0,3.5,48,0.00,FEW,,0.00,0.0,WeatherDisplay:10.37,2013-11-28 22:43:00,
2013-11-28 17:48:00,30.6,13.2,30.42,NW,323,2.4,3.5,48,0.00,FEW,,0.00,0.0,WeatherDisplay:10.37,2013-11-28 22:48:00,
2013-11-28 17:53:00,30.4,13.0,30.42,NW,323,1.4,4.6,48,0.00,FEW,,0.00,0.0,WeatherDisplay:10.37,2013-11-28 22:53:00,
2013-11-28 17:58:00,30.4,13.5,30.42,NW,323,0.0,0.0,49,0.00,FEW,,0.00,0.0,WeatherDisplay:10.37,2013-11-28 22:58:00,
2013-11-28 18:03:00,30.3,13.4,30.43,NW,323,0.0,0.0,49,0.00,FEW,,0.00,0.0,WeatherDisplay:10.37,2013-11-28 23:03:00,
2013-11-28 18:08:00,30.1,13.2,30.43,NW,323,0.0,0.0,49,0.00,FEW,,0.00,0.0,WeatherDisplay:10.37,2013-11-28 23:08:00,
2013-11-28 18:13:00,29.8,13.4,30.43,NW,323,0.0,0.0,50,0.00,FEW,,0.00,0.0,WeatherDisplay:10.37,2013-11-28 23:13:00,
2013-11-28 18:18:00,29.4,13.5,30.43,NW,323,0.0,0.0,51,0.00,FEW,,0.00,0.0,WeatherDisplay:10.37,2013-11-28 23:18:00,
2013-11-28 18:23:00,29.4,13.5,30.43,NW,323,0.0,0.0,51,0.00,FEW,,0.00,0.0,WeatherDisplay:10.37,2013-11-28 23:23:00,
2013-11-28 18:28:00,29.3,13.8,30.43,NW,323,0.0,0.0,52,0.00,FEW,,0.00,0.0,WeatherDisplay:10.37,2013-11-28 23:28:00,
2013-11-28 18:33:00,29.1,14.1,30.43,NW,323,0.0,0.0,53,0.00,FEW,,0.00,0.0,WeatherDisplay:10.37,2013-11-28 23:33:00,
2013-11-28 18:38:00,29.0,14.4,30.43,NW,323,0.0,0.0,54,0.00,FEW,,0.00,0.0,WeatherDisplay:10.37,2013-11-28 23:38:00,
2013-11-28 18:43:00,28.7,14.1,30.43,NW,323,0.0,0.0,54,0.00,FEW,,0.00,0.0,WeatherDisplay:10.37,2013-11-28 23:43:00,
2013-11-28 18:48:00,28.5,14.8,30.43,NW,323,0.0,0.0,56,0.00,FEW,,0.00,0.0,WeatherDisplay:10.37,2013-11-28 23:48:00,
2013-11-28 18:53:00,28.2,14.9,30.44,NW,323,0.0,0.0,57,0.00,FEW,,0.00,0.0,WeatherDisplay:10.37,2013-11-28 23:53:00,
2013-11-28 18:58:00,28.1,14.8,30.44,NW,323,0.0,0.0,57,0.00,FEW,,0.00,0.0,WeatherDisplay:10.37,2013-11-28 23:58:00,
2013-11-28 19:03:00,27.9,14.6,30.44,NW,323,0.0,0.0,57,0.00,FEW,,0.00,0.0,WeatherDisplay:10.37,2013-11-29 00:03:00,
2013-11-28 19:08:00,27.9,15.0,30.45,NW,323,0.0,0.0,58,0.00,FEW,,0.00,0.0,WeatherDisplay:10.37,2013-11-29 00:08:00,
2013-11-28 19:13:00,27.9,15.0,30.45,NW,323,0.0,0.0,58,0.00,FEW,,0.00,0.0,WeatherDisplay:10.37,2013-11-29 00:13:00,
2013-11-28 19:18:00,27.8,14.9,30.45,NW,323,0.0,0.0,58,0.00,FEW,,0.00,0.0,WeatherDisplay:10.37,2013-11-29 00:18:00,
2013-11-28 19:23:00,27.6,14.7,30.45,NW,323,0.0,0.0,58,0.00,FEW,,0.00,0.0,WeatherDisplay:10.37,2013-11-29 00:23:00,
2013-11-28 19:28:00,27.8,14.9,30.45,NW,323,0.0,0.0,58,0.00,FEW,,0.00,0.0,WeatherDisplay:10.37,2013-11-29 00:28:00,
2013-11-28 19:33:00,27.8,14.9,30.45,NW,323,0.0,0.0,58,0.00,FEW,,0.00,0.0,WeatherDisplay:10.37,2013-11-29 00:33:00,
2013-11-28 19:38:00,27.6,15.1,30.46,NW,323,0.0,0.0,59,0.00,FEW,,0.00,0.0,WeatherDisplay:10.37,2013-11-29 00:38:00,
2013-11-28 19:43:00,27.5,15.4,30.46,NW,323,0.0,0.0,60,0.00,FEW,,0.00,0.0,WeatherDisplay:10.37,2013-11-29 00:43:00,
2013-11-28 19:48:00,27.6,15.9,30.46,NW,323,0.0,0.0,61,0.00,FEW,,0.00,0.0,WeatherDisplay:10.37,2013-11-29 00:48:00,
2013-11-28 19:53:00,27.8,16.1,30.46,NW,323,0.0,0.0,61,0.00,FEW,,0.00,0.0,WeatherDisplay:10.37,2013-11-29 00:53:00,
2013-11-28 19:58:00,27.8,16.1,30.46,NW,323,0.0,0.0,61,0.00,FEW,,0.00,0.0,WeatherDisplay:10.37,2013-11-29 00:58:00,
2013-11-28 20:03:00,27.8,16.5,30.46,NW,323,0.0,0.0,62,0.00,FEW,,0.00,0.0,WeatherDisplay:10.37,2013-11-29 01:03:00,
2013-11-28 20:08:00,27.8,16.5,30.46,NW,323,0.0,0.0,62,0.00,SCT,,0.00,0.0,WeatherDisplay:10.37,2013-11-29 01:08:00,
2013-11-28 20:13:00,27.8,16.8,30.46,NW,323,0.0,0.0,63,0.00,SCT,,0.00,0.0,WeatherDisplay:10.37,2013-11-29 01:13:00,
2013-11-28 20:18:00,27.8,16.8,30.46,NW,323,0.0,0.0,63,0.00,SCT,,0.00,0.0,WeatherDisplay:10.37,2013-11-29 01:18:00,
2013-11-28 20:23:00,27.9,16.9,30.46,NW,323,0.1,1.5,63,0.00,SCT,,0.00,0.0,WeatherDisplay:10.37,2013-11-29 01:23:00,
2013-11-28 20:28:00,28.2,17.2,30.46,NW,323,0.0,0.0,63,0.00,SCT,,0.00,0.0,WeatherDisplay:10.37,2013-11-29 01:28:00,
2013-11-28 20:33:00,28.2,17.2,30.46,NW,323,0.0,0.0,63,0.00,SCT,,0.00,0.0,WeatherDisplay:10.37,2013-11-29 01:33:00,
2013-11-28 20:38:00,28.2,17.6,30.46,NW,323,0.0,0.0,64,0.00,SCT,,0.00,0.0,WeatherDisplay:10.37,2013-11-29 01:38:00,
2013-11-28 20:43:00,28.2,17.9,30.47,NW,323,0.0,0.0,65,0.00,SCT,,0.00,0.0,WeatherDisplay:10.37,2013-11-29 01:43:00,
2013-11-28 20:48:00,28.4,18.1,30.47,NW,323,0.0,0.0,65,0.00,SCT,,0.00,0.0,WeatherDisplay:10.37,2013-11-29 01:48:00,
2013-11-28 20:53:00,28.5,18.2,30.47,NW,323,0.0,0.0,65,0.00,SCT,,0.00,0.0,WeatherDisplay:10.37,2013-11-29 01:53:00,
2013-11-28 20:58:00,28.5,18.2,30.46,NW,323,0.0,0.0,65,0.00,SCT,,0.00,0.0,WeatherDisplay:10.37,2013-11-29 01:58:00,
2013-11-28 21:03:00,28.7,18.8,30.46,NW,323,0.0,0.0,66,0.00,SCT,,0.00,0.0,WeatherDisplay:10.37,2013-11-29 02:03:00,
2013-11-28 21:08:00,28.7,18.8,30.47,NW,323,0.0,0.0,66,0.00,SCT,,0.00,0.0,WeatherDisplay:10.37,2013-11-29 02:08:00,
2013-11-28 21:13:00,28.7,18.8,30.47,NW,323,0.0,0.0,66,0.00,OVC,,0.00,0.0,WeatherDisplay:10.37,2013-11-29 02:13:00,
2013-11-28 21:18:00,28.7,18.8,30.47,NW,323,0.0,0.0,66,0.00,OVC,,0.00,0.0,WeatherDisplay:10.37,2013-11-29 02:18:00,
2013-11-28 21:23:00,28.7,19.1,30.47,NW,323,0.0,0.0,67,0.00,OVC,,0.00,0.0,WeatherDisplay:10.37,2013-11-29 02:23:00,
2013-11-28 21:28:00,28.7,19.5,30.47,NW,323,0.0,0.0,68,0.00,OVC,,0.00,0.0,WeatherDisplay:10.37,2013-11-29 02:28:00,
2013-11-28 21:33:00,28.5,18.9,30.47,NW,323,0.0,0.0,67,0.00,OVC,,0.00,0.0,WeatherDisplay:10.37,2013-11-29 02:33:00,
2013-11-28 21:38:00,28.5,18.9,30.47,NW,323,0.0,0.0,67,0.00,OVC,,0.00,0.0,WeatherDisplay:10.37,2013-11-29 02:38:00,
2013-11-28 21:43:00,28.5,18.9,30.47,NW,323,0.0,0.0,67,0.00,OVC,,0.00,0.0,WeatherDisplay:10.37,2013-11-29 02:43:00,
2013-11-28 21:48:00,28.7,19.5,30.47,NW,323,0.0,0.0,68,0.00,OVC,,0.00,0.0,WeatherDisplay:10.37,2013-11-29 02:48:00,
2013-11-28 21:53:00,28.7,19.5,30.47,NW,323,0.0,0.0,68,0.00,OVC,,0.00,0.0,WeatherDisplay:10.37,2013-11-29 02:53:00,
2013-11-28 21:58:00,28.7,19.5,30.47,NW,323,0.0,0.0,68,0.00,OVC,,0.00,0.0,WeatherDisplay:10.37,2013-11-29 02:58:00,
2013-11-28 22:03:00,28.7,19.5,30.47,NW,323,0.0,0.0,68,0.00,OVC,,0.00,0.0,WeatherDisplay:10.37,2013-11-29 03:03:00,
2013-11-28 22:08:00,28.7,19.8,30.47,NW,323,0.0,0.0,69,0.00,OVC,,0.00,0.0,WeatherDisplay:10.37,2013-11-29 03:08:00,
2013-11-28 22:13:00,28.7,19.8,30.47,NW,323,0.0,0.0,69,0.00,OVC,,0.00,0.0,WeatherDisplay:10.37,2013-11-29 03:13:00,
2013-11-28 22:18:00,28.8,19.9,30.47,NW,323,0.0,0.0,69,0.00,OVC,,0.00,0.0,WeatherDisplay:10.37,2013-11-29 03:18:00,
2013-11-28 22:23:00,28.8,19.9,30.47,NW,323,0.0,0.0,69,0.00,OVC,,0.00,0.0,WeatherDisplay:10.37,2013-11-29 03:23:00,
2013-11-28 22:28:00,29.1,19.5,30.47,NW,323,0.0,0.0,67,0.00,OVC,,0.00,0.0,WeatherDisplay:10.37,2013-11-29 03:28:00,
2013-11-28 22:33:00,29.4,19.8,30.48,NW,323,0.0,0.0,67,0.00,OVC,,0.00,0.0,WeatherDisplay:10.37,2013-11-29 03:33:00,
2013-11-28 22:38:00,29.5,19.5,30.48,NW,323,0.0,0.0,66,0.00,OVC,,0.00,0.0,WeatherDisplay:10.37,2013-11-29 03:38:00,
2013-11-28 22:43:00,29.5,18.4,30.47,NW,323,0.0,0.0,63,0.00,OVC,,0.00,0.0,WeatherDisplay:10.37,2013-11-29 03:43:00,
2013-11-28 22:48:00,30.0,17.4,30.47,NW,323,0.0,0.0,59,0.00,OVC,,0.00,0.0,WeatherDisplay:10.37,2013-11-29 03:48:00,
2013-11-28 22:53:00,30.1,16.7,30.47,NW,323,0.0,0.0,57,0.00,OVC,,0.00,0.0,WeatherDisplay:10.37,2013-11-29 03:53:00,
2013-11-28 22:58:00,30.3,16.5,30.47,NW,323,0.0,0.0,56,0.00,OVC,,0.00,0.0,WeatherDisplay:10.37,2013-11-29 03:58:00,
2013-11-28 23:03:00,30.4,16.1,30.47,NW,323,0.0,0.0,55,0.00,OVC,,0.00,0.0,WeatherDisplay:10.37,2013-11-29 04:03:00,
2013-11-28 23:08:00,30.4,16.1,30.48,NW,323,0.0,0.0,55,0.00,OVC,,0.00,0.0,WeatherDisplay:10.37,2013-11-29 04:08:00,
2013-11-28 23:13:00,30.6,15.9,30.48,NW,323,0.0,1.2,54,0.00,OVC,,0.00,0.0,WeatherDisplay:10.37,2013-11-29 04:13:00,
2013-11-28 23:18:00,30.7,16.8,30.48,NW,323,0.0,0.0,56,0.00,OVC,,0.00,0.0,WeatherDisplay:10.37,2013-11-29 04:18:00,
2013-11-28 23:23:00,30.6,15.9,30.48,NW,323,0.0,0.0,54,0.00,OVC,,0.00,0.0,WeatherDisplay:10.37,2013-11-29 04:23:00,
2013-11-28 23:28:00,30.7,15.6,30.48,NW,323,0.0,0.0,53,0.00,OVC,,0.00,0.0,WeatherDisplay:10.37,2013-11-29 04:28:00,
2013-11-28 23:33:00,30.7,15.1,30.48,NW,323,0.0,0.0,52,0.00,OVC,,0.00,0.0,WeatherDisplay:10.37,2013-11-29 04:33:00,
2013-11-28 23:38:00,30.6,15.5,30.48,NW,323,0.0,0.0,53,0.00,OVC,,0.00,0.0,WeatherDisplay:10.37,2013-11-29 04:38:00,
2013-11-28 23:43:00,30.4,15.7,30.48,NW,323,0.0,0.0,54,0.00,OVC,,0.00,0.0,WeatherDisplay:10.37,2013-11-29 04:43:00,
2013-11-28 23:48:00,30.1,15.4,30.48,NW,323,0.0,0.0,54,0.00,OVC,,0.00,0.0,WeatherDisplay:10.37,2013-11-29 04:48:00,
2013-11-28 23:53:00,29.7,15.5,30.48,NW,323,0.0,0.0,55,0.00,OVC,,0.00,0.0,WeatherDisplay:10.37,2013-11-29 04:53:00,
2013-11-28 23:58:00,29.1,15.3,30.48,NW,323,0.0,0.0,56,0.00,OVC,,0.00,0.0,WeatherDisplay:10.37,2013-11-29 04:58:00,